Simultaneous Nadir Overpasses (SNOs) Predictions

Prediction of SNOs between AQUA and NOAA-19 Satellite Orbit:

Table of predicted SNOs for the next 14.0 days since TLE Epoch: 1/23/2016
Index Date (AQUA) Time (AQUA) Lat,Lon (AQUA) SZA (AQUA ) Date (NOAA-19) Time (NOAA-19) Lat,Lon (NOAA-19) SZA (NOAA-19 ) Distance(km) Time Diff (sec)
1 01/25/2016 05:27:53 -80.68,-119.14 78.17 01/25/2016 05:28:10 -80.68,-119.21 78.16 1.19 17
2 01/27/2016 10:12:11 -80.69, 169.64 78.67 01/27/2016 10:11:20 -80.69, 169.69 78.65 1.07 51
3 01/27/2016 11:01:37 80.67, -22.49 101.28 01/27/2016 11:02:20 80.66, -22.34 101.24 2.74 43
4 01/29/2016 15:45:55 80.69, -93.79 100.76 01/29/2016 15:45:31 80.69, -93.63 100.75 2.86 24
5 01/29/2016 16:35:20 -80.65, 74.31 79.33 01/29/2016 16:36:29 -80.66, 74.21 79.34 2.16 69
6 01/31/2016 21:19:39 -80.70, 2.61 79.82 01/31/2016 21:19:40 -80.69, 2.71 79.83 2.03 1
7 02/03/2016 02:03:56 -80.71, -68.50 80.43 02/03/2016 02:02:50 -80.71, -68.47 80.39 0.63 66
8 02/03/2016 02:53:22 80.69, 99.35 99.54 02/03/2016 02:53:52 80.69, 99.33 99.52 0.41 30
9 02/05/2016 07:37:39 80.70, 28.16 98.92 02/05/2016 07:37:02 80.70, 28.30 98.92 2.53 37




NCC Satellite Simultaneous Nadir Overpasses (SNOs) Prediction Service
